• In Austria
  • List of Countries
  • For 7 days
  • Water Temperature
  • Satellite Maps
  • Weather Map
  • News
  • Weather Widgets
  • user-avatar
    Login

    Hourly Weather Chyhrynivka

    Today, 14 August, Tuesday

    Time Temperature Precipitation Wind Pressure Humidity
    00:00 +24°C° 0 mm 1 mps 749 mmHg 58%
    01:00 +24°C° 0 mm 1 mps 749 mmHg 59%
    02:00 +24°C° 0 mm 1 mps 749 mmHg 59%
    03:00 +23°C° 0 mm 1 mps 749 mmHg 59%
    04:00 +23°C° 0 mm 1 mps 750 mmHg 60%
    05:00 +23°C° 0 mm 1 mps 750 mmHg 60%
    06:00 +25°C° 0 mm 2 mps 750 mmHg 56%
    07:00 +27°C° 0 mm 2 mps 750 mmHg 51%
    08:00 +29°C° 0 mm 3 mps 750 mmHg 45%
    09:00 +30°C° 0 mm 3 mps 750 mmHg 39%
    10:00 +32°C° 0 mm 2 mps 750 mmHg 34%
    11:00 +34°C° 0 mm 2 mps 750 mmHg 28%
    12:00 +34°C° 0 mm 2 mps 750 mmHg 28%
    13:00 +33°C° 0 mm 1 mps 750 mmHg 28%
    14:00 +33°C° 0 mm 1 mps 750 mmHg 28%
    15:00 +33°C° 0 mm 1 mps 749 mmHg 28%
    16:00 +33°C° 0 mm 1 mps 749 mmHg 27%
    17:00 +33°C° 0 mm 1 mps 749 mmHg 26%
    18:00 +32°C° 0 mm 1 mps 749 mmHg 30%
    19:00 +30°C° 0 mm 1 mps 749 mmHg 33%
    20:00 +28°C° 0 mm 2 mps 749 mmHg 36%
    21:00 +27°C° 0 mm 2 mps 750 mmHg 38%
    22:00 +27°C° 0 mm 2 mps 750 mmHg 40%
    23:00 +26°C° 0 mm 2 mps 750 mmHg 41%

    Tomorrow, 15 August, Wednesday

    Time Temperature Precipitation Wind Pressure Humidity
    00:00 +25°C° 0 mm 2 mps 750 mmHg 43%
    01:00 +25°C° 0 mm 2 mps 750 mmHg 45%
    02:00 +24°C° 0 mm 2 mps 750 mmHg 47%
    03:00 +24°C° 0 mm 2 mps 750 mmHg 48%
    04:00 +24°C° 0 mm 2 mps 750 mmHg 50%
    05:00 +24°C° 0 mm 2 mps 750 mmHg 51%
    06:00 +26°C° 0 mm 3 mps 750 mmHg 48%
    07:00 +27°C° 0 mm 3 mps 750 mmHg 44%
    08:00 +29°C° 0 mm 3 mps 751 mmHg 40%
    09:00 +31°C° 0 mm 3 mps 750 mmHg 36%
    10:00 +33°C° 0 mm 3 mps 750 mmHg 32%
    11:00 +35°C° 0 mm 3 mps 750 mmHg 28%
    12:00 +34°C° 0 mm 2 mps 750 mmHg 29%
    13:00 +34°C° 0 mm 2 mps 750 mmHg 31%
    14:00 +34°C° 0 mm 2 mps 750 mmHg 32%
    15:00 +34°C° 0 mm 2 mps 749 mmHg 31%
    16:00 +34°C° 0 mm 2 mps 749 mmHg 31%
    17:00 +34°C° 0 mm 2 mps 749 mmHg 30%
    18:00 +31°C° 0 mm 2 mps 749 mmHg 33%
    19:00 +30°C° 0 mm 2 mps 749 mmHg 36%
    20:00 +28°C° 0 mm 2 mps 749 mmHg 40%
    21:00 +27°C° 0 mm 2 mps 749 mmHg 41%
    22:00 +27°C° 0 mm 2 mps 749 mmHg 42%
    23:00 +26°C° 0 mm 2 mps 749 mmHg 43%

    Day after tomorrow, 16 August, Thursday

    Time Temperature Precipitation Wind Pressure Humidity
    00:00 +26°C° 0 mm 2 mps 749 mmHg 43%
    01:00 +25°C° 0 mm 2 mps 749 mmHg 44%
    02:00 +25°C° 0 mm 2 mps 749 mmHg 44%
    03:00 +24°C° 0 mm 2 mps 749 mmHg 44%
    04:00 +24°C° 0 mm 2 mps 749 mmHg 44%
    05:00 +24°C° 0 mm 2 mps 749 mmHg 44%
    06:00 +26°C° 0 mm 2 mps 749 mmHg 41%
    07:00 +28°C° 0 mm 2 mps 749 mmHg 37%
    08:00 +30°C° 0 mm 2 mps 749 mmHg 34%
    09:00 +31°C° 0 mm 3 mps 749 mmHg 31%
    10:00 +34°C° 0 mm 3 mps 749 mmHg 28%
    11:00 +35°C° 0 mm 3 mps 749 mmHg 24%
    12:00 +35°C° 0 mm 3 mps 749 mmHg 24%
    13:00 +36°C° 0 mm 3 mps 749 mmHg 23%
    14:00 +36°C° 0 mm 2 mps 748 mmHg 22%
    15:00 +36°C° 0 mm 2 mps 748 mmHg 23%
    16:00 +36°C° 0 mm 2 mps 748 mmHg 24%
    17:00 +35°C° 0 mm 2 mps 748 mmHg 25%
    18:00 +34°C° 0 mm 2 mps 748 mmHg 28%
    19:00 +31°C° 0 mm 3 mps 748 mmHg 30%
    20:00 +30°C° 0 mm 3 mps 748 mmHg 33%
    21:00 +29°C° 0 mm 3 mps 748 mmHg 34%
    22:00 +29°C° 0 mm 3 mps 748 mmHg 36%
    23:00 +28°C° 0 mm 3 mps 748 mmHg 37%

    17 August, Friday

    Time Temperature Precipitation Wind Pressure Humidity
    00:00 +27°C° 0 mm 3 mps 748 mmHg 39%
    01:00 +27°C° 0 mm 3 mps 748 mmHg 40%
    02:00 +26°C° 0 mm 3 mps 748 mmHg 42%
    03:00 +26°C° 0 mm 3 mps 748 mmHg 43%
    04:00 +26°C° 0 mm 3 mps 748 mmHg 44%
    05:00 +25°C° 0 mm 3 mps 748 mmHg 45%
    06:00 +26°C° 0 mm 3 mps 749 mmHg 44%
    07:00 +27°C° 0 mm 3 mps 749 mmHg 44%
    08:00 +28°C° 0 mm 3 mps 749 mmHg 44%
    09:00 +29°C° 0 mm 3 mps 749 mmHg 42%
    10:00 +29°C° 0 mm 3 mps 749 mmHg 40%
    11:00 +30°C° 0 mm 3 mps 749 mmHg 38%
    12:00 +31°C° 0 mm 3 mps 749 mmHg 37%
    13:00 +31°C° 0 mm 3 mps 748 mmHg 36%
    14:00 +33°C° 0 mm 3 mps 748 mmHg 35%
    15:00 +33°C° 0 mm 3 mps 748 mmHg 35%
    16:00 +33°C° 0 mm 3 mps 748 mmHg 35%
    17:00 +31°C° 0 mm 3 mps 748 mmHg 35%
    18:00 +30°C° 0 mm 3 mps 748 mmHg 37%
    19:00 +29°C° 0 mm 3 mps 749 mmHg 40%
    20:00 +27°C° 0 mm 3 mps 749 mmHg 43%
    21:00 +27°C° 0 mm 3 mps 749 mmHg 44%
    22:00 +26°C° 0 mm 3 mps 749 mmHg 46%
    23:00 +25°C° 0 mm 3 mps 749 mmHg 47%

    18 August, Saturday

    Time Temperature Precipitation Wind Pressure Humidity
    00:00 +25°C° 0 mm 3 mps 749 mmHg 49%
    01:00 +24°C° 0 mm 2 mps 749 mmHg 50%
    02:00 +24°C° 0 mm 2 mps 749 mmHg 51%
    03:00 +23°C° 0 mm 2 mps 749 mmHg 53%
    04:00 +23°C° 0 mm 2 mps 749 mmHg 54%
    05:00 +21°C° 0 mm 3 mps 749 mmHg 55%
    06:00 +24°C° 0 mm 3 mps 750 mmHg 51%
    07:00 +27°C° 0 mm 3 mps 750 mmHg 46%
    08:00 +29°C° 0 mm 2 mps 750 mmHg 42%
    09:00 +30°C° 0 mm 3 mps 750 mmHg 37%
    10:00 +33°C° 0 mm 3 mps 750 mmHg 33%
    11:00 +35°C° 0 mm 3 mps 750 mmHg 28%
    12:00 +35°C° 0 mm 2 mps 749 mmHg 27%
    13:00 +35°C° 0 mm 2 mps 749 mmHg 26%
    14:00 +36°C° 0 mm 2 mps 749 mmHg 25%
    15:00 +35°C° 0 mm 2 mps 749 mmHg 28%
    16:00 +34°C° 0 mm 2 mps 749 mmHg 31%
    17:00 +32°C° 0 mm 2 mps 749 mmHg 34%
    18:00 +31°C° 0 mm 2 mps 749 mmHg 36%
    19:00 +30°C° 0 mm 2 mps 749 mmHg 37%
    20:00 +28°C° 0 mm 2 mps 750 mmHg 39%
    21:00 +28°C° 0.1 mm 2 mps 750 mmHg 41%
    22:00 +27°C° 0.1 mm 2 mps 750 mmHg 43%
    23:00 +26°C° 0.1 mm 2 mps 750 mmHg 44%

    19 August, Sunday

    Time Temperature Precipitation Wind Pressure Humidity
    00:00 +25°C° 0.1 mm 2 mps 750 mmHg 48%
    01:00 +25°C° 0.1 mm 2 mps 750 mmHg 51%
    02:00 +24°C° 0.1 mm 2 mps 750 mmHg 55%
    03:00 +23°C° 0 mm 2 mps 750 mmHg 58%
    04:00 +23°C° 0 mm 2 mps 750 mmHg 60%
    05:00 +23°C° 0 mm 2 mps 750 mmHg 63%
    06:00 +24°C° 0 mm 2 mps 750 mmHg 59%
    07:00 +26°C° 0 mm 2 mps 751 mmHg 55%
    08:00 +28°C° 0 mm 2 mps 751 mmHg 51%
    09:00 +29°C° 0 mm 2 mps 751 mmHg 47%
    10:00 +31°C° 0 mm 2 mps 750 mmHg 42%
    11:00 +32°C° 0 mm 2 mps 750 mmHg 38%
    12:00 +32°C° 0 mm 2 mps 750 mmHg 37%
    13:00 +32°C° 0 mm 2 mps 750 mmHg 35%
    14:00 +34°C° 0 mm 2 mps 750 mmHg 34%
    15:00 +32°C° 0 mm 2 mps 750 mmHg 34%
    16:00 +32°C° 0 mm 2 mps 750 mmHg 35%
    17:00 +33°C° 0 mm 3 mps 750 mmHg 35%
    18:00 +31°C° 0.1 mm 2 mps 750 mmHg 39%
    19:00 +29°C° 0.1 mm 2 mps 750 mmHg 42%
    20:00 +27°C° 0.1 mm 2 mps 750 mmHg 45%
    21:00 +26°C° 0.1 mm 2 mps 750 mmHg 47%
    22:00 +26°C° 0.1 mm 2 mps 750 mmHg 48%
    23:00 +25°C° 0.1 mm 2 mps 750 mmHg 49%
    Show more